| time (UTC) | temp F | wind direction | speed MPH | gust MPH | rain 1hr in | rain 24hr in | rain mn in | humidity % | barometer mb |
| 20260507120001 | 49 | 234 | 0.0 | 0.0 | 0.00 | 0.00 | 0.00 | 93 | 1011.1 |
| 20260507114604 | 49 | 234 | 0.0 | 0.0 | 0.00 | 0.00 | 0.00 | 93 | 1011.1 |
| 20260507113059 | 49 | 234 | 0.0 | 0.0 | 0.00 | 0.00 | 0.00 | 93 | 1011.1 |
| 20260507111602 | 49 | 234 | 0.0 | 0.0 | 0.00 | 0.00 | 0.00 | 93 | 1011.1 |
| 20260507110156 | 50 | 234 | 0.0 | 0.0 | 0.00 | 0.00 | 0.00 | 93 | 1011.2 |
| 20260507104554 | 50 | 234 | 0.0 | 0.0 | 0.00 | 0.00 | 0.00 | 93 | 1011.2 |
| 20260507103052 | 50 | 234 | 0.0 | 0.0 | 0.00 | 0.00 | 0.00 | 93 | 1011.2 |
| 20260507101602 | 50 | 234 | 0.0 | 0.0 | 0.00 | 0.00 | 0.00 | 93 | 1011.2 |
| 20260507100049 | 50 | 234 | 0.0 | 0.0 | 0.00 | 0.00 | 0.00 | 93 | 1011.2 |
| 20260507094548 | 50 | 234 | 0.0 | 0.0 | 0.00 | 0.00 | 0.00 | 93 | 1011.3 |
| 20260507093047 | 51 | 234 | 0.0 | 0.0 | 0.00 | 0.00 | 0.00 | 93 | 1011.4 |
| 20260507091544 | 51 | 234 | 0.0 | 0.0 | 0.00 | 0.00 | 0.00 | 93 | 1011.6 |
| 20260507090043 | 51 | 234 | 0.0 | 0.0 | 0.00 | 0.00 | 0.00 | 93 | 1011.7 |
| 20260507084543 | 51 | 234 | 0.0 | 0.0 | 0.00 | 0.00 | 0.00 | 92 | 1011.7 |
| 20260507083040 | 51 | 234 | 0.0 | 0.0 | 0.00 | 0.00 | 0.00 | 92 | 1011.8 |
| 20260507081538 | 51 | 234 | 0.0 | 0.0 | 0.00 | 0.00 | 0.00 | 92 | 1011.8 |
| 20260507080039 | 52 | 234 | 0.0 | 0.0 | 0.00 | 0.00 | 0.00 | 92 | 1011.8 |
| 20260507074535 | 52 | 234 | 0.0 | 0.0 | 0.00 | 0.00 | 0.00 | 92 | 1011.8 |
| 20260507073033 | 52 | 234 | 0.0 | 0.0 | 0.00 | 0.00 | 0.00 | 92 | 1011.8 |
| 20260507071530 | 53 | 234 | 0.0 | 0.0 | 0.00 | 0.00 | 0.00 | 91 | 1011.9 |
| 20260507070029 | 53 | 234 | 0.0 | 0.0 | 0.00 | 0.00 | 0.00 | 91 | 1011.9 |
| 20260507064529 | 53 | 234 | 0.0 | 0.0 | 0.00 | 0.00 | 0.00 | 91 | 1011.9 |
| 20260507063031 | 54 | 234 | 0.0 | 0.0 | 0.00 | 0.00 | 0.00 | 91 | 1011.9 |
| 20260507061529 | 54 | 234 | 0.0 | 2.0 | 0.00 | 0.00 | 0.00 | 90 | 1011.8 |
| 20260507060035 | 54 | 234 | 0.0 | 0.0 | 0.00 | 0.00 | 0.00 | 90 | 1011.8 |
| 20260507054526 | 55 | 234 | 0.0 | 0.0 | 0.00 | 0.00 | 0.00 | 90 | 1011.8 |
| 20260507053027 | 55 | 234 | 0.0 | 0.0 | 0.00 | 0.00 | 0.00 | 89 | 1011.5 |
| 20260507051526 | 55 | 234 | 0.0 | 1.0 | 0.00 | 0.00 | 0.00 | 88 | 1011.7 |
| 20260507050034 | 56 | 234 | 0.0 | 0.0 | 0.00 | 0.00 | 0.00 | 88 | 1011.8 |
| 20260507044524 | 56 | 234 | 0.0 | 0.0 | 0.00 | 0.00 | 0.00 | 87 | 1011.9 |
| 20260507043024 | 57 | 234 | 0.0 | 0.0 | 0.00 | 0.00 | 0.00 | 86 | 1011.9 |
| 20260507041538 | 58 | 234 | 0.0 | 0.0 | 0.00 | 0.00 | 0.00 | 86 | 1011.7 |
| 20260507040022 | 58 | 234 | 0.0 | 0.0 | 0.00 | 0.00 | 0.00 | 84 | 1011.5 |
| 20260507034522 | 59 | 234 | 0.0 | 0.0 | 0.00 | 0.00 | 0.00 | 83 | 1011.3 |
| 20260507033022 | 60 | 234 | 0.0 | 0.0 | 0.00 | 0.00 | 0.00 | 82 | 1011.1 |
| 20260507031521 | 61 | 234 | 0.0 | 0.0 | 0.00 | 0.00 | 0.00 | 80 | 1011.0 |
| 20260507030020 | 63 | 234 | 0.0 | 0.0 | 0.00 | 0.00 | 0.00 | 78 | 1010.9 |
| 20260507024520 | 64 | 234 | 0.0 | 1.0 | 0.00 | 0.00 | 0.00 | 76 | 1010.7 |
| 20260507023019 | 66 | 234 | 0.0 | 2.0 | 0.00 | 0.00 | 0.00 | 72 | 1010.6 |
| 20260507021518 | 67 | 254 | 0.0 | 2.0 | 0.00 | 0.00 | 0.00 | 68 | 1010.5 |
| 20260507020021 | 69 | 252 | 0.0 | 7.0 | 0.00 | 0.00 | 0.00 | 66 | 1010.5 |
| 20260507014525 | 70 | 225 | 1.0 | 4.0 | 0.00 | 0.00 | 0.00 | 62 | 1010.5 |
| 20260507013033 | 71 | 221 | 0.0 | 4.0 | 0.00 | 0.00 | 0.00 | 61 | 1010.4 |
| 20260507011530 | 72 | 221 | 0.0 | 3.0 | 0.00 | 0.00 | 0.00 | 62 | 1010.3 |
| 20260507010015 | 72 | 259 | 0.0 | 4.0 | 0.00 | 0.00 | 0.00 | 61 | 1010.4 |
| 20260507004517 | 72 | 251 | 0.0 | 6.0 | 0.00 | 0.00 | 0.00 | 61 | 1010.5 |
| 20260507003013 | 73 | 234 | 1.0 | 5.0 | 0.00 | 0.00 | 0.00 | 59 | 1010.3 |
| 20260507001512 | 73 | 263 | 0.0 | 4.0 | 0.00 | 0.00 | 0.00 | 61 | 1010.3 |
| 20260507000022 | 73 | 219 | 1.0 | 4.0 | 0.00 | 0.00 | 0.00 | 60 | 1010.4 |
| 20260506234510 | 73 | 262 | 1.0 | 4.0 | 0.00 | 0.00 | 0.00 | 58 | 1010.5 |
| 20260506233008 | 73 | 244 | 0.0 | 7.0 | 0.00 | 0.00 | 0.00 | 60 | 1010.6 |
| 20260506231505 | 73 | 226 | 0.0 | 4.0 | 0.00 | 0.00 | 0.00 | 62 | 1010.8 |
| 20260506230002 | 72 | 331 | 1.0 | 5.0 | 0.00 | 0.00 | 0.00 | 61 | 1011.0 |
| 20260506224604 | 72 | 251 | 3.0 | 9.0 | 0.00 | 0.00 | 0.00 | 60 | 1011.1 |
| 20260506223126 | 72 | 248 | 1.0 | 5.0 | 0.00 | 0.00 | 0.00 | 61 | 1011.3 |
| 20260506221602 | 71 | 254 | 2.0 | 7.0 | 0.00 | 0.00 | 0.00 | 58 | 1011.4 |
| 20260506220055 | 71 | 73 | 0.0 | 5.0 | 0.00 | 0.00 | 0.00 | 60 | 1011.5 |
| 20260506214600 | 70 | 30 | 0.0 | 4.0 | 0.00 | 0.00 | 0.00 | 59 | 1011.9 |
| 20260506213052 | 70 | 303 | 1.0 | 4.0 | 0.00 | 0.00 | 0.00 | 60 | 1012.1 |
| 20260506211549 | 70 | 234 | 1.0 | 7.0 | 0.00 | 0.00 | 0.00 | 60 | 1012.4 |
| 20260506210046 | 69 | 16 | 0.0 | 4.0 | 0.00 | 0.00 | 0.00 | 62 | 1012.4 |
| 20260506204544 | 69 | 105 | 1.0 | 4.0 | 0.00 | 0.00 | 0.00 | 62 | 1012.5 |
| 20260506203045 | 68 | 17 | 2.0 | 5.0 | 0.00 | 0.00 | 0.00 | 63 | 1012.7 |
| 20260506201538 | 67 | 205 | 0.0 | 4.0 | 0.00 | 0.00 | 0.00 | 62 | 1012.8 |
| 20260506200051 | 68 | 205 | 0.0 | 5.0 | 0.00 | 0.00 | 0.00 | 63 | 1012.9 |
| 20260506194538 | 67 | 215 | 0.0 | 4.0 | 0.00 | 0.00 | 0.00 | 67 | 1013.0 |
| 20260506193033 | 67 | 232 | 0.0 | 3.0 | 0.00 | 0.00 | 0.00 | 67 | 1013.2 |
| 20260506191533 | 66 | 229 | 1.0 | 4.0 | 0.00 | 0.00 | 0.00 | 69 | 1013.3 |
| 20260506190029 | 66 | 40 | 0.0 | 6.0 | 0.00 | 0.00 | 0.00 | 69 | 1013.4 |
| 20260506184526 | 64 | 360 | 0.0 | 4.0 | 0.00 | 0.00 | 0.00 | 73 | 1013.6 |
| 20260506183025 | 64 | 316 | 2.0 | 4.0 | 0.00 | 0.00 | 0.00 | 73 | 1013.6 |
| 20260506181529 | 64 | 227 | 2.0 | 5.0 | 0.00 | 0.00 | 0.00 | 74 | 1013.6 |
| 20260506180026 | 63 | 234 | 1.0 | 5.0 | 0.00 | 0.00 | 0.00 | 77 | 1013.7 |
| 20260506174514 | 62 | 271 | 0.0 | 4.0 | 0.00 | 0.00 | 0.00 | 79 | 1013.8 |
| 20260506173010 | 60 | 341 | 0.0 | 5.0 | 0.00 | 0.00 | 0.00 | 81 | 1013.6 |
| 20260506171506 | 57 | 179 | 0.0 | 4.0 | 0.00 | 0.00 | 0.00 | 89 | 1013.7 |
| 20260506170003 | 55 | 256 | 0.0 | 2.0 | 0.00 | 0.00 | 0.00 | 95 | 1013.6 |
| 20260506164600 | 54 | 288 | 0.0 | 2.0 | 0.00 | 0.00 | 0.00 | 96 | 1013.7 |
| 20260506163103 | 53 | 24 | 0.0 | 3.0 | 0.00 | 0.00 | 0.00 | 96 | 1013.7 |
| 20260506161558 | 52 | 331 | 0.0 | 1.0 | 0.00 | 0.00 | 0.00 | 96 | 1013.7 |
| 20260506160104 | 51 | 331 | 0.0 | 0.0 | 0.00 | 0.00 | 0.00 | 96 | 1013.7 |
| 20260506154547 | 50 | 330 | 0.0 | 0.0 | 0.00 | 0.03 | 0.00 | 96 | 1013.7 |
| 20260506153044 | 48 | 330 | 0.0 | 0.0 | 0.00 | 0.03 | 0.00 | 96 | 1013.9 |
| 20260506151541 | 47 | 330 | 0.0 | 0.0 | 0.00 | 0.03 | 0.00 | 96 | 1014.1 |
| 20260506150040 | 46 | 330 | 0.0 | 0.0 | 0.00 | 0.03 | 0.00 | 96 | 1014.0 |
| 20260506144540 | 45 | 330 | 0.0 | 0.0 | 0.00 | 0.03 | 0.00 | 95 | 1014.1 |
| 20260506143038 | 44 | 330 | 0.0 | 0.0 | 0.00 | 0.03 | 0.00 | 95 | 1014.0 |
| 20260506141537 | 44 | 330 | 0.0 | 0.0 | 0.00 | 0.03 | 0.00 | 95 | 1013.9 |
| 20260506140042 | 44 | 330 | 0.0 | 0.0 | 0.00 | 0.03 | 0.00 | 95 | 1013.6 |
| 20260506134605 | 44 | 330 | 0.0 | 0.0 | 0.00 | 0.05 | 0.00 | 95 | 1013.5 |
| 20260506133032 | 43 | 330 | 0.0 | 0.0 | 0.00 | 0.05 | 0.00 | 95 | 1013.3 |
| 20260506131532 | 43 | 330 | 0.0 | 0.0 | 0.00 | 0.05 | 0.00 | 95 | 1013.3 |
| 20260506130032 | 43 | 330 | 0.0 | 0.0 | 0.00 | 0.05 | 0.00 | 95 | 1013.2 |
| 20260506124527 | 43 | 331 | 0.0 | 0.0 | 0.00 | 0.05 | 0.00 | 95 | 1013.0 |
| 20260506123026 | 44 | 330 | 0.0 | 0.0 | 0.00 | 0.05 | 0.00 | 94 | 1012.9 |
| 20260506121524 | 44 | 331 | 0.0 | 0.0 | 0.00 | 0.05 | 0.00 | 94 | 1012.9 |